period_start,C,m1,H,J0,J1,J2,J3,J4,J5,JA,JB,JC,JD,JJ,JK,JN,#
2013-11-12 00:00:28,0.04,2.41,0.00,24.15,25.65,28.53,5.86,30.33,1006.87,2050.00,2561.28,2729.00,2904.88,350.16,320.10,23.42,0000 0000 0000 0000 000000
2013-11-12 00:01:28,0.06,2.41,0.00,24.15,25.65,28.44,5.77,30.13,1006.86,2050.00,2561.12,2728.97,2904.62,350.26,319.85,23.43,0000 0000 0000 0000 000000
2013-11-12 00:02:28,0.09,2.41,0.00,24.14,25.65,28.47,5.82,30.17,1006.85,2050.00,2561.04,2728.84,2904.28,349.29,318.98,23.43,0000 0000 0000 0000 000000
2013-11-12 00:03:29,0.10,2.41,0.00,24.14,25.65,28.45,5.94,30.25,1006.85,2050.00,2561.01,2728.64,2904.11,350.77,320.46,23.44,0000 0000 0000 0000 000000
2013-11-12 00:04:29,0.10,2.41,0.00,24.13,25.65,28.52,6.02,30.29,1006.85,2050.00,2561.00,2728.40,2904.04,351.14,320.67,23.44,0000 0000 0000 0000 000000
2013-11-12 00:05:29,0.08,2.41,0.00,24.14,25.65,28.42,5.87,30.25,1006.85,2050.00,2560.90,2728.18,2904.01,350.32,319.92,23.45,0000 0000 0000 0000 000000
2013-11-12 00:06:30,0.09,2.41,0.00,24.16,25.66,28.50,5.95,30.33,1006.85,2049.99,2560.43,2728.07,2904.00,350.22,319.82,23.46,0000 0000 0000 0000 000000
2013-11-12 00:07:30,0.09,2.41,0.00,24.14,25.66,28.54,5.85,30.21,1006.85,2049.98,2560.16,2728.02,2903.99,349.72,319.37,23.46,0000 0000 0000 0000 000000
2013-11-12 00:08:30,0.05,2.41,0.00,24.14,25.66,28.49,5.83,30.63,1006.85,2049.99,2560.05,2727.99,2903.87,349.73,319.38,23.47,0000 0000 0000 0000 000000
2013-11-12 00:09:31,0.06,2.41,0.00,24.15,25.67,28.51,5.91,30.79,1006.85,2049.99,2559.93,2727.97,2903.58,350.02,319.63,23.47,0000 0000 0000 0000 000000
2013-11-12 00:10:31,0.07,2.41,0.00,24.16,25.67,28.54,5.76,30.54,1006.85,2049.99,2559.83,2727.92,2903.34,349.92,319.91,23.48,0000 0000 0000 0000 000000
2013-11-12 00:11:31,0.05,2.41,0.00,24.15,25.67,28.52,5.91,30.71,1006.85,2049.98,2559.89,2727.80,2903.15,349.97,319.48,23.49,0000 0000 0000 0000 000000
2013-11-12 00:12:31,0.06,2.41,0.00,24.16,25.67,28.43,5.82,30.29,1006.85,2049.98,2559.84,2727.56,2903.05,349.43,319.26,23.49,0000 0000 0000 0000 000000
2013-11-12 00:13:32,0.10,2.41,0.00,24.17,25.67,28.40,5.87,30.21,1006.85,2049.99,2559.57,2727.28,2903.02,349.21,319.00,23.50,0000 0000 0000 0000 000000
2013-11-12 00:14:32,0.14,2.42,0.00,24.17,25.67,28.49,5.89,30.25,1006.85,2049.98,2559.23,2727.11,2902.97,350.56,319.68,23.50,0000 0000 0000 0000 000000
2013-11-12 00:15:32,0.11,2.42,0.00,24.17,25.67,28.44,5.83,30.38,1006.85,2049.96,2559.08,2727.04,2902.90,348.73,318.43,23.51,0000 0000 0000 0000 000000
2013-11-12 00:16:33,0.05,2.42,0.00,24.15,25.67,28.44,5.77,30.38,1006.85,2049.96,2559.03,2727.01,2902.65,349.37,319.04,23.51,0000 0000 0000 0000 000000
2013-11-12 00:17:33,0.06,2.42,0.00,24.15,25.67,28.52,5.82,30.33,1006.85,2049.95,2558.87,2726.98,2902.30,349.91,319.41,23.52,0000 0000 0000 0000 000000
2013-11-12 00:18:33,0.12,2.42,0.00,24.15,25.67,28.47,5.99,30.04,1006.85,2049.95,2558.38,2726.58,2902.11,351.62,321.09,23.53,0000 0000 0000 0000 000000
2013-11-12 00:19:33,0.23,2.42,0.00,24.17,25.67,28.55,5.71,30.08,1006.85,2049.97,2558.14,2726.21,2902.01,348.19,317.95,23.53,0000 0000 0000 0000 000000
2013-11-12 00:20:33,0.16,2.42,0.00,24.13,25.67,28.54,5.80,30.04,1006.85,2049.96,2558.05,2726.08,2901.96,350.08,319.71,23.54,0000 0000 0000 0000 000000
2013-11-12 00:21:34,0.06,2.42,0.00,24.13,25.67,28.54,5.76,30.04,1006.85,2049.97,2558.01,2726.03,2901.77,349.61,319.18,23.54,0000 0000 0000 0000 000000
2013-11-12 00:22:34,0.05,2.42,0.00,24.11,25.67,28.57,5.77,30.29,1006.84,2049.99,2558.00,2726.01,2901.49,349.26,319.17,23.55,0000 0000 0000 0000 000000
2013-11-12 00:23:34,0.07,2.42,0.00,24.13,25.67,28.46,5.86,30.25,1006.84,2049.97,2558.00,2726.00,2901.22,350.40,320.00,23.56,0000 0000 0000 0000 000000
2013-11-12 00:24:35,0.03,2.42,0.00,24.14,25.67,28.52,5.96,30.33,1006.84,2049.97,2557.97,2725.97,2901.08,350.79,320.34,23.56,0000 0000 0000 0000 000000
2013-11-12 00:25:35,0.04,2.42,0.00,24.14,25.67,28.44,5.77,30.17,1006.84,2049.98,2557.71,2725.91,2901.03,349.24,319.22,23.57,0000 0000 0000 0000 000000
2013-11-12 00:26:35,0.10,2.42,0.00,24.12,25.67,28.43,5.89,30.13,1006.84,2049.97,2557.36,2725.62,2901.01,350.76,319.69,23.57,0000 0000 0000 0000 000000
2013-11-12 00:27:35,0.15,2.42,0.00,24.12,25.67,28.49,5.91,30.33,1006.83,2049.98,2557.15,2725.32,2900.98,351.06,320.62,23.58,0000 0000 0000 0000 000000
2013-11-12 00:28:36,0.13,2.42,0.00,24.14,25.67,28.56,5.93,30.46,1006.83,2049.97,2557.05,2725.14,2900.81,350.32,319.91,23.58,0000 0000 0000 0000 000000
2013-11-12 00:29:36,0.08,2.42,0.00,24.13,25.67,28.48,5.88,30.08,1006.80,2049.95,2557.00,2725.05,2900.49,349.29,318.96,23.59,0000 0000 0000 0000 000000
2013-11-12 00:30:36,0.07,2.42,0.00,23.92,25.68,28.51,5.88,30.58,1006.78,2049.93,2556.95,2725.02,2900.25,350.56,320.17,23.60,0000 0000 0000 0000 000000
2013-11-12 00:31:36,0.05,2.42,0.00,23.40,25.68,28.50,5.85,30.67,1006.80,2049.93,2556.74,2725.00,2900.11,349.32,319.46,23.60,0000 0000 0000 0000 000000
2013-11-12 00:32:37,0.06,2.42,0.00,23.60,25.68,28.53,5.73,30.58,1006.67,2049.92,2556.37,2724.97,2900.04,350.10,320.39,23.61,0000 0000 0000 0000 000000
2013-11-12 00:33:37,0.06,2.42,0.00,23.80,25.68,28.52,5.89,30.21,1006.58,2049.90,2556.15,2724.95,2900.01,349.87,319.52,23.61,0000 0000 0000 0000 000000
2013-11-12 00:34:37,0.04,2.43,0.00,23.91,25.69,28.54,6.00,30.58,1006.56,2049.92,2556.06,2724.77,2900.00,349.62,319.43,23.62,0000 0000 0000 0000 000000
2013-11-12 00:35:37,0.11,2.43,0.00,23.98,25.69,28.53,5.87,30.33,1006.64,2049.94,2556.02,2724.35,2899.99,350.50,320.18,23.63,0000 0000 0000 0000 000000
2013-11-12 00:36:38,0.11,2.43,0.00,24.00,25.69,28.50,5.85,30.29,1006.65,2049.90,2555.97,2724.15,2899.88,348.56,318.50,23.63,0000 0000 0000 0000 000000
2013-11-12 00:37:38,0.07,2.43,0.00,24.03,25.69,28.49,5.84,30.13,1006.57,2049.84,2555.67,2724.05,2899.56,349.66,319.34,23.64,0000 0000 0000 0000 000000
2013-11-12 00:38:38,0.11,2.43,0.00,23.80,25.69,28.47,5.92,30.63,1006.53,2049.87,2555.30,2724.02,2899.27,349.67,319.56,23.64,0000 0000 0000 0000 000000
2013-11-12 00:39:39,0.14,2.43,0.00,23.07,25.70,28.50,5.99,30.83,1006.47,2049.90,2555.12,2724.00,2899.10,350.65,321.24,23.65,0000 0000 0000 0000 000000
2013-11-12 00:40:39,0.09,2.43,0.00,22.46,25.69,28.63,5.92,30.42,1006.49,2049.87,2555.04,2723.99,2899.04,350.26,321.54,23.65,0000 0000 0000 0000 000000
2013-11-12 00:41:39,-0.01,2.43,0.00,22.50,25.68,28.72,5.94,31.00,1006.42,2049.78,2554.80,2723.91,2899.01,349.92,321.20,23.66,0000 0000 0000 0000 000000
2013-11-12 00:42:39,0.02,2.43,0.00,22.58,25.68,28.75,6.08,31.00,1006.47,2049.81,2554.39,2723.76,2899.00,350.10,321.23,23.67,0000 0000 0000 0000 000000
2013-11-12 00:43:40,0.15,2.43,0.00,23.08,25.67,28.77,6.01,30.96,1006.45,2049.80,2554.19,2723.42,2898.97,350.75,321.35,23.67,0000 0000 0000 0000 000000
2013-11-12 00:44:40,0.14,2.43,0.00,23.37,25.67,28.70,6.01,30.67,1006.43,2049.86,2554.07,2723.17,2898.77,349.91,320.24,23.68,0000 0000 0000 0000 000000
2013-11-12 00:45:40,0.15,2.43,0.00,23.50,25.67,28.71,6.01,30.79,1006.41,2049.84,2554.02,2723.06,2898.58,350.77,320.89,23.68,0000 0000 0000 0000 000000
2013-11-12 00:46:41,0.07,2.43,0.00,23.59,25.67,28.67,5.94,30.96,1006.40,2049.86,2553.85,2723.02,2898.33,350.77,320.78,23.69,0000 0000 0000 0000 000000
2013-11-12 00:47:41,0.10,2.43,0.00,23.65,25.67,28.63,6.10,30.63,1006.38,2049.91,2553.57,2722.99,2898.10,349.99,319.99,23.70,0000 0000 0000 0000 000000
2013-11-12 00:48:41,0.14,2.43,0.00,23.70,25.67,28.59,5.79,30.71,1006.37,2049.88,2553.24,2722.96,2898.01,349.44,319.60,23.70,0000 0000 0000 0000 000000
2013-11-12 00:49:41,0.06,2.43,0.00,23.75,25.67,28.59,5.91,30.50,1006.36,2049.90,2553.09,2722.93,2897.95,350.79,320.74,23.71,0000 0000 0000 0000 000000
2013-11-12 00:50:42,0.05,2.43,0.00,23.78,25.67,28.60,5.94,30.50,1006.37,2049.89,2553.03,2722.58,2897.72,350.52,320.95,23.71,0000 0000 0000 0000 000000
2013-11-12 00:51:42,0.14,2.44,0.00,23.78,25.66,28.58,6.02,30.50,1006.36,2049.90,2553.01,2722.27,2897.36,350.23,320.03,23.72,0000 0000 0000 0000 000000
2013-11-12 00:52:42,0.16,2.44,0.00,23.80,25.66,28.56,5.86,30.46,1006.36,2049.90,2552.91,2722.11,2897.15,349.81,319.67,23.73,0000 0000 0000 0000 000000
2013-11-12 00:53:43,0.11,2.44,0.00,23.85,25.65,28.54,5.81,30.29,1006.36,2049.93,2552.50,2722.04,2897.05,349.26,319.11,23.73,0000 0000 0000 0000 000000
2013-11-12 00:54:43,0.14,2.44,0.00,23.86,25.65,28.52,5.77,30.17,1006.36,2049.93,2552.18,2722.01,2897.01,349.10,318.95,23.74,0000 0000 0000 0000 000000
2013-11-12 00:55:43,0.05,2.44,0.00,23.87,25.65,28.52,5.82,30.46,1006.36,2049.94,2552.07,2722.00,2897.00,350.12,319.87,23.74,0000 0000 0000 0000 000000
2013-11-12 00:56:43,0.02,2.44,0.00,23.90,25.65,28.47,5.94,30.58,1006.36,2049.92,2552.02,2721.99,2897.00,350.45,319.99,23.75,0000 0000 0000 0000 000000
2013-11-12 00:57:44,0.00,2.44,0.00,23.90,25.65,28.47,5.96,30.79,1006.36,2049.92,2552.00,2721.98,2896.99,350.25,319.88,23.75,0000 0000 0000 0000 000000
2013-11-12 00:58:44,0.01,2.44,0.00,23.92,25.65,28.46,5.87,30.33,1006.36,2049.95,2551.96,2721.88,2896.95,350.30,319.71,23.76,0000 0000 0000 0000 000000
2013-11-12 00:59:44,0.06,2.44,0.00,23.92,25.64,28.45,5.89,30.54,1006.36,2049.92,2551.50,2721.54,2896.86,350.16,320.08,23.77,0000 0000 0000 0000 000000
2013-11-12 01:00:44,0.19,2.44,0.00,23.93,25.64,28.47,5.63,30.42,1006.36,2049.94,2551.18,2721.22,2896.66,348.98,318.72,23.77,0000 0000 0000 0000 000000
2013-11-12 01:01:44,0.20,2.44,0.00,23.97,25.63,28.42,5.79,30.33,1006.35,2049.96,2551.06,2721.09,2896.32,349.71,319.40,23.78,0000 0000 0000 0000 000000
2013-11-12 01:02:45,0.12,2.44,0.00,24.01,25.63,28.37,5.91,30.54,1006.33,2049.97,2550.92,2721.03,2896.16,350.54,320.25,23.78,0000 0000 0000 0000 000000
2013-11-12 01:03:45,0.08,2.44,0.00,24.02,25.62,28.36,5.80,30.63,1006.34,2049.98,2550.57,2721.01,2896.07,350.46,319.59,23.79,0000 0000 0000 0000 000000
2013-11-12 01:04:45,0.09,2.44,0.00,23.98,25.62,28.36,5.92,30.29,1006.30,2049.97,2550.26,2721.00,2896.03,350.14,319.85,23.80,0000 0000 0000 0000 000000
2013-11-12 01:05:46,0.07,2.44,0.00,23.97,25.62,28.40,5.73,30.29,1006.31,2049.97,2550.10,2721.00,2896.01,349.15,318.85,23.80,0000 0000 0000 0000 000000
2013-11-12 01:06:46,0.02,2.44,0.00,24.01,25.62,28.33,5.79,30.29,1006.26,2049.98,2550.03,2720.99,2896.00,349.70,319.12,23.81,0000 0000 0000 0000 000000
2013-11-12 01:07:46,0.03,2.44,0.00,24.00,25.62,28.33,5.92,30.42,1006.26,2049.99,2550.01,2720.87,2896.00,349.64,319.01,23.81,0000 0000 0000 0000 000000
2013-11-12 01:08:46,0.04,2.44,0.00,24.00,25.62,28.35,5.95,30.33,1006.25,2049.97,2550.00,2720.62,2895.99,349.74,319.07,23.82,0000 0000 0000 0000 000000
2013-11-12 01:09:46,0.07,2.44,0.00,24.03,25.62,28.39,5.91,30.58,1006.21,2049.98,2549.74,2720.30,2895.82,349.08,318.94,23.83,0000 0000 0000 0000 000000
2013-11-12 01:10:46,0.20,2.45,0.00,24.04,25.62,28.42,5.96,30.67,1006.24,2049.98,2549.66,2720.12,2895.41,350.38,319.74,23.83,0000 0000 0000 0000 000000
2013-11-12 01:11:47,0.12,2.45,0.00,24.05,25.62,28.38,5.93,30.58,1006.19,2049.98,2549.35,2720.04,2895.15,350.05,319.65,23.84,0000 0000 0000 0000 000000
2013-11-12 01:12:47,0.12,2.45,0.00,24.04,25.62,28.42,5.92,30.29,1006.17,2049.98,2549.14,2720.01,2895.05,350.32,319.80,23.84,0000 0000 0000 0000 000000
2013-11-12 01:13:47,0.06,2.45,0.00,24.02,25.61,28.35,5.63,30.46,1006.14,2049.97,2549.04,2719.99,2894.98,348.45,318.11,23.85,0000 0000 0000 0000 000000
2013-11-12 01:14:47,0.01,2.45,0.00,24.03,25.61,28.34,5.95,30.25,1006.11,2049.97,2549.01,2719.98,2894.82,349.66,319.19,23.85,0000 0000 0000 0000 000000
2013-11-12 01:15:48,0.05,2.45,0.00,24.07,25.61,28.35,5.77,30.46,1006.07,2049.96,2548.98,2719.86,2894.42,349.44,318.94,23.86,0000 0000 0000 0000 000000
2013-11-12 01:16:48,0.11,2.45,0.00,24.07,25.60,28.36,5.73,30.38,1006.03,2049.96,2548.74,2719.45,2894.17,349.46,318.94,23.87,0000 0000 0000 0000 000000
2013-11-12 01:17:48,0.22,2.45,0.00,24.07,25.60,28.43,5.70,30.17,1006.00,2049.96,2548.31,2719.20,2894.06,349.81,319.25,23.87,0000 0000 0000 0000 000000
2013-11-12 01:18:48,0.13,2.45,0.00,24.09,25.60,28.38,5.83,30.25,1005.98,2049.95,2548.14,2719.09,2894.02,349.55,318.98,23.88,0000 0000 0000 0000 000000
2013-11-12 01:19:49,0.08,2.45,0.00,24.10,25.60,28.33,5.94,30.46,1005.97,2049.97,2548.06,2719.04,2894.00,350.58,319.94,23.88,0000 0000 0000 0000 000000
2013-11-12 01:20:49,0.05,2.45,0.00,24.11,25.60,28.38,5.92,30.63,1005.97,2049.99,2548.02,2719.01,2894.00,350.32,319.67,23.89,0000 0000 0000 0000 000000
2013-11-12 01:21:49,0.01,2.45,0.00,24.10,25.60,28.39,5.93,30.50,1005.94,2049.98,2548.00,2719.00,2893.99,350.00,319.38,23.90,0000 0000 0000 0000 000000
2013-11-12 01:22:50,0.00,2.45,0.00,24.13,25.60,28.37,5.87,30.38,1005.96,2049.98,2547.99,2719.00,2893.98,350.27,319.76,23.90,0000 0000 0000 0000 000000
2013-11-12 01:23:50,0.00,2.45,0.00,24.13,25.60,28.40,5.91,30.54,1005.93,2049.97,2547.97,2719.00,2893.96,349.57,318.86,23.91,0000 0000 0000 0000 000000
2013-11-12 01:24:50,-0.01,2.45,0.00,24.09,25.60,28.39,5.99,30.54,1005.90,2049.96,2547.93,2718.98,2893.75,350.73,320.05,23.91,0000 0000 0000 0000 000000
2013-11-12 01:25:50,0.08,2.45,0.00,24.11,25.60,28.36,5.90,30.17,1005.91,2049.98,2547.61,2718.82,2893.31,350.48,319.80,23.92,0000 0000 0000 0000 000000
2013-11-12 01:26:51,0.19,2.45,0.00,24.15,25.60,28.39,5.83,30.08,1005.89,2049.98,2547.30,2718.62,2893.12,350.27,319.12,23.92,0000 0000 0000 0000 000000
2013-11-12 01:27:51,0.14,2.45,0.00,24.16,25.60,28.39,5.85,30.42,1005.89,2049.98,2547.13,2718.31,2893.05,348.83,318.43,23.93,0000 0000 0000 0000 000000
2013-11-12 01:28:51,0.13,2.45,0.00,24.16,25.60,28.33,5.89,30.21,1005.89,2049.97,2547.05,2718.12,2893.01,349.32,318.67,23.94,0000 0000 0000 0000 000000
2013-11-12 01:29:51,0.05,2.45,0.00,24.17,25.60,28.36,5.79,30.17,1005.89,2049.98,2547.01,2718.05,2893.00,349.74,318.85,23.94,0000 0000 0000 0000 000000
2013-11-12 01:30:52,0.02,2.46,0.00,24.16,25.60,28.43,5.62,30.17,1005.88,2049.96,2546.96,2718.01,2892.97,349.52,318.67,23.95,0000 0000 0000 0000 000000
2013-11-12 01:31:52,0.01,2.46,0.00,24.18,25.60,28.44,5.93,30.46,1005.88,2049.96,2546.56,2718.00,2892.90,350.22,319.62,23.95,0000 0000 0000 0000 000000
2013-11-12 01:32:52,0.09,2.46,0.00,24.18,25.60,28.43,6.04,30.42,1005.88,2049.96,2546.22,2717.99,2892.67,349.78,318.71,23.96,0000 0000 0000 0000 000000
2013-11-12 01:33:52,0.12,2.46,0.00,24.19,25.60,28.42,5.87,30.33,1005.87,2049.96,2546.08,2717.93,2892.34,349.79,319.07,23.97,0000 0000 0000 0000 000000
2013-11-12 01:34:52,0.09,2.46,0.00,24.20,25.60,28.45,5.97,30.71,1005.89,2049.96,2546.01,2717.71,2892.14,350.30,319.52,23.97,0000 0000 0000 0000 000000
2013-11-12 01:35:53,0.11,2.46,0.00,24.18,25.60,28.44,5.77,30.42,1005.87,2049.95,2545.97,2717.44,2892.06,349.36,318.68,23.98,0000 0000 0000 0000 000000
2013-11-12 01:36:53,0.08,2.46,0.00,24.18,25.61,28.43,5.83,30.54,1005.87,2049.95,2545.82,2717.19,2892.02,349.31,318.64,23.98,0000 0000 0000 0000 000000
2013-11-12 01:37:53,0.12,2.46,0.00,24.18,25.61,28.48,5.95,30.42,1005.87,2049.94,2545.40,2717.08,2892.00,350.29,320.01,23.99,0000 0000 0000 0000 000000
2013-11-12 01:38:53,0.08,2.46,0.00,24.18,25.62,28.46,5.97,30.33,1005.87,2049.95,2545.14,2717.03,2891.99,350.43,319.68,24.00,0000 0000 0000 0000 000000
2013-11-12 01:39:54,0.08,2.46,0.00,24.19,25.62,28.44,5.77,30.29,1005.87,2049.97,2545.05,2717.00,2891.94,349.39,318.88,24.00,0000 0000 0000 0000 000000
2013-11-12 01:40:54,0.05,2.46,0.00,24.21,25.62,28.40,5.90,30.08,1005.87,2049.93,2545.02,2716.98,2891.83,350.06,318.67,24.01,0000 0000 0000 0000 000000
2013-11-12 01:41:54,-0.01,2.46,0.00,24.21,25.62,28.41,5.88,30.63,1005.87,2049.96,2544.99,2716.96,2891.68,349.66,318.68,24.01,0000 0000 0000 0000 000000
2013-11-12 01:42:54,0.07,2.46,0.00,24.20,25.62,28.47,5.86,30.46,1005.87,2049.93,2544.74,2716.81,2891.29,349.70,319.08,24.02,0000 0000 0000 0000 000000
2013-11-12 01:43:54,0.14,2.46,0.00,24.21,25.62,28.48,6.01,30.79,1005.87,2049.92,2544.34,2716.44,2891.11,350.82,319.98,24.02,0000 0000 0000 0000 000000
2013-11-12 01:44:55,0.23,2.46,0.00,24.20,25.62,28.49,5.77,30.21,1005.87,2049.94,2544.15,2716.19,2891.04,348.98,318.55,24.03,0000 0000 0000 0000 000000
2013-11-12 01:45:55,0.10,2.46,0.00,24.20,25.62,28.47,5.69,30.25,1005.87,2049.93,2544.05,2716.07,2891.01,349.21,318.87,24.04,0000 0000 0000 0000 000000
2013-11-12 01:46:55,0.04,2.46,0.00,24.22,25.62,28.51,5.83,30.21,1005.87,2049.95,2544.02,2716.03,2891.00,350.29,319.50,24.04,0000 0000 0000 0000 000000
2013-11-12 01:47:55,0.04,2.46,0.00,24.21,25.62,28.47,5.88,30.38,1005.87,2049.96,2543.99,2716.01,2890.99,350.11,319.20,24.05,0000 0000 0000 0000 000000
2013-11-12 01:48:55,0.01,2.46,0.00,24.22,25.62,28.40,5.77,30.21,1005.87,2049.97,2543.91,2716.00,2890.92,349.78,319.42,24.05,0000 0000 0000 0000 000000
2013-11-12 01:49:55,0.02,2.46,0.00,24.22,25.62,28.44,6.03,30.63,1005.87,2049.94,2543.53,2715.99,2890.62,350.95,320.23,24.06,0000 0000 0000 0000 000000
2013-11-12 01:50:56,0.13,2.47,0.00,24.24,25.62,28.49,5.99,30.54,1005.87,2049.95,2543.24,2715.93,2890.30,350.19,318.96,24.07,0000 0000 0000 0000 000000
2013-11-12 01:51:56,0.13,2.47,0.00,24.26,25.62,28.50,5.84,30.42,1005.87,2049.95,2543.09,2715.68,2890.13,349.25,318.51,24.07,0000 0000 0000 0000 000000
2013-11-12 01:52:56,0.15,2.47,0.00,24.25,25.62,28.52,5.91,30.38,1005.87,2049.95,2543.03,2715.32,2890.06,349.89,319.05,24.08,0000 0000 0000 0000 000000
2013-11-12 01:53:56,0.11,2.47,0.00,24.24,25.63,28.49,5.92,30.21,1005.87,2049.97,2542.99,2715.13,2890.03,350.63,319.39,24.08,0000 0000 0000 0000 000000
2013-11-12 01:54:56,0.07,2.47,0.00,24.26,25.63,28.53,5.89,30.25,1005.86,2049.96,2542.82,2715.08,2890.00,350.68,319.65,24.09,0000 0000 0000 0000 000000
2013-11-12 01:55:56,0.03,2.47,0.00,24.27,25.64,28.50,5.92,30.08,1005.86,2049.95,2542.61,2715.03,2889.98,350.44,319.51,24.09,0000 0000 0000 0000 000000
2013-11-12 01:56:57,0.06,2.47,0.00,24.28,25.64,28.54,5.84,30.58,1005.84,2049.95,2542.75,2715.01,2889.81,349.95,319.56,24.10,0000 0000 0000 0000 000000
2013-11-12 01:57:57,0.00,2.47,0.00,24.31,25.65,28.53,5.88,30.38,1005.83,2049.94,2542.58,2715.00,2889.41,349.88,318.90,24.11,0000 0000 0000 0000 000000
2013-11-12 01:58:57,0.11,2.47,0.00,24.32,25.65,28.43,5.93,30.25,1005.84,2049.94,2542.23,2714.99,2889.16,350.21,318.91,24.11,0000 0000 0000 0000 000000
2013-11-12 01:59:57,0.08,2.47,0.00,24.30,25.65,28.43,5.85,30.58,1005.83,2049.89,2542.07,2714.83,2889.06,349.72,318.87,24.12,0000 0000 0000 0000 000000
2013-11-12 02:00:58,0.06,2.47,0.00,24.30,25.65,28.51,5.76,30.54,1005.75,2049.89,2541.99,2714.45,2889.03,350.18,319.27,24.12,0000 0000 0000 0000 000000
2013-11-12 02:01:58,0.16,2.47,0.00,24.32,25.65,28.49,5.96,30.50,1005.68,2049.86,2541.82,2714.20,2889.00,351.02,320.00,24.13,0000 0000 0000 0000 000000
2013-11-12 02:02:58,0.02,2.47,0.00,24.32,25.65,28.45,5.91,30.42,1005.67,2049.83,2541.43,2714.08,2888.99,349.95,319.00,24.14,0000 0000 0000 0000 000000
2013-11-12 02:03:58,0.09,2.47,0.00,24.32,25.65,28.53,5.80,30.21,1005.63,2049.87,2541.19,2714.03,2888.98,350.20,319.23,24.14,0000 0000 0000 0000 000000
2013-11-12 02:04:58,0.14,2.47,0.00,24.31,25.65,28.57,5.76,30.17,1005.55,2049.91,2541.07,2714.01,2888.88,349.63,318.69,24.15,0000 0000 0000 0000 000000
2013-11-12 02:05:59,0.07,2.47,0.00,24.33,25.66,28.51,5.80,30.33,1005.50,2049.90,2541.03,2714.00,2888.55,349.25,318.31,24.15,0000 0000 0000 0000 000000
2013-11-12 02:06:59,0.07,2.47,0.00,24.33,25.67,28.53,5.83,30.29,1005.51,2049.85,2540.99,2713.98,2888.22,349.66,319.03,24.16,0000 0000 0000 0000 000000
2013-11-12 02:07:59,-0.03,2.47,0.00,24.30,25.67,28.56,5.94,30.54,1005.49,2049.69,2540.93,2713.90,2888.09,350.16,319.34,24.16,0000 0000 0000 0000 000000
2013-11-12 02:08:59,-0.10,2.47,0.00,24.31,25.67,28.59,5.96,29.96,1005.51,2049.68,2540.71,2713.61,2888.03,350.52,319.49,24.17,0000 0000 0000 0000 000000
2013-11-12 02:09:59,0.20,2.47,0.00,24.34,25.67,28.58,5.98,30.67,1005.52,2049.81,2540.39,2713.39,2888.01,350.39,319.19,24.18,0000 0000 0000 0000 000000
2013-11-12 02:11:00,0.27,2.48,0.00,24.34,25.67,28.58,5.94,30.50,1005.51,2049.85,2540.17,2713.21,2888.00,350.28,319.01,24.18,0000 0000 0000 0000 000000
2013-11-12 02:12:00,0.11,2.48,0.00,24.34,25.67,28.58,5.80,30.29,1005.53,2049.80,2540.07,2713.08,2887.98,349.62,318.63,24.19,0000 0000 0000 0000 000000
2013-11-12 02:13:00,0.00,2.48,0.00,24.34,25.67,28.56,6.01,30.71,1005.48,2049.73,2540.02,2713.03,2887.74,350.45,319.39,24.19,0000 0000 0000 0000 000000
2013-11-12 02:14:00,0.00,2.48,0.00,24.33,25.67,28.57,5.83,30.54,1005.46,2049.76,2540.00,2713.01,2887.42,350.27,319.48,24.20,0000 0000 0000 0000 000000
2013-11-12 02:15:01,0.08,2.48,0.00,24.30,25.68,28.56,5.81,30.25,1005.44,2049.66,2539.86,2712.99,2887.18,350.27,319.25,24.21,0000 0000 0000 0000 000000
2013-11-12 02:16:01,-0.01,2.48,0.00,24.32,25.69,28.59,5.73,29.96,1005.41,2049.53,2539.61,2712.96,2887.07,349.74,318.45,24.21,0000 0000 0000 0000 000000
2013-11-12 02:17:01,-0.03,2.48,0.00,24.32,25.70,28.53,5.88,30.46,1005.40,2049.44,2539.27,2712.75,2887.02,349.76,318.47,24.22,0000 0000 0000 0000 000000
2013-11-12 02:18:01,0.06,2.48,0.00,24.32,25.70,28.55,5.82,30.42,1005.42,2049.30,2539.11,2712.44,2887.00,350.04,319.07,24.22,0000 0000 0000 0000 000000
2013-11-12 02:19:01,-0.01,2.48,0.00,24.33,25.70,28.59,5.84,30.17,1005.40,2049.21,2539.04,2712.22,2886.97,350.21,319.15,24.23,0000 0000 0000 0000 000000
2013-11-12 02:20:02,0.03,2.48,0.00,24.32,25.70,28.61,5.69,30.25,1005.40,2049.23,2539.01,2712.09,2886.87,349.23,318.65,24.23,0000 0000 0000 0000 000000
2013-11-12 02:21:02,0.08,2.48,0.00,24.33,25.70,28.61,5.81,30.50,1005.41,2049.28,2538.96,2712.03,2886.51,348.95,318.08,24.24,0000 0000 0000 0000 000000
2013-11-12 02:22:02,0.12,2.48,0.00,24.30,25.70,28.60,5.83,30.38,1005.40,2049.28,2538.87,2712.01,2886.24,350.30,319.26,24.25,0000 0000 0000 0000 000000
2013-11-12 02:23:03,0.03,2.48,0.00,24.31,25.70,28.59,5.89,30.42,1005.40,2049.24,2538.61,2712.00,2886.11,350.03,319.01,24.25,0000 0000 0000 0000 000000
2013-11-12 02:24:03,0.04,2.48,0.00,24.33,25.71,28.65,6.08,30.63,1005.40,2049.17,2538.28,2712.00,2886.04,350.63,319.53,24.26,0000 0000 0000 0000 000000
2013-11-12 02:25:03,0.04,2.48,0.00,24.33,25.72,28.61,5.77,30.29,1005.40,2049.17,2538.13,2712.00,2886.01,349.78,318.95,24.26,0000 0000 0000 0000 000000
2013-11-12 02:26:03,0.06,2.48,0.00,24.35,25.72,28.56,5.85,29.92,1005.39,2049.14,2538.05,2711.89,2886.00,350.54,319.43,24.27,0000 0000 0000 0000 000000
2013-11-12 02:27:03,0.01,2.48,0.00,24.34,25.72,28.56,5.83,29.96,1005.40,2049.21,2538.01,2711.61,2885.99,349.09,318.12,24.28,0000 0000 0000 0000 000000
2013-11-12 02:28:04,0.16,2.48,0.00,24.34,25.72,28.59,5.82,30.21,1005.40,2049.16,2538.00,2711.28,2885.84,350.06,319.00,24.28,0000 0000 0000 0000 000000
2013-11-12 02:29:04,0.06,2.48,0.00,24.33,25.72,28.61,5.92,30.21,1005.40,2049.11,2537.89,2711.13,2885.50,349.69,318.67,24.29,0000 0000 0000 0000 000000
2013-11-12 02:30:05,0.08,2.48,0.00,24.34,25.72,28.64,6.02,30.58,1005.39,2049.08,2537.45,2711.05,2885.21,351.73,320.46,24.29,0000 0000 0000 0000 000000
2013-11-12 02:31:05,0.15,2.48,0.00,24.36,25.72,28.64,5.93,30.25,1005.40,2049.05,2537.17,2711.01,2885.08,349.37,318.13,24.30,0000 0000 0000 0000 000000
2013-11-12 02:32:05,0.03,2.48,0.00,24.36,25.73,28.56,5.99,30.38,1005.39,2049.06,2537.06,2711.00,2885.03,350.94,319.78,24.31,0000 0000 0000 0000 000000
2013-11-12 02:33:05,0.04,2.48,0.00,24.35,25.74,28.61,5.87,30.38,1005.40,2049.06,2537.02,2711.00,2885.01,349.93,319.46,24.31,0000 0000 0000 0000 000000
2013-11-12 02:34:05,0.02,2.48,0.00,24.35,25.75,28.58,5.90,29.88,1005.39,2049.03,2537.00,2710.92,2884.99,350.48,319.22,24.32,0000 0000 0000 0000 000000
2013-11-12 02:35:05,0.02,2.48,0.00,24.34,25.75,28.56,5.87,30.17,1005.39,2049.03,2536.98,2710.59,2884.92,350.05,318.70,24.32,0000 0000 0000 0000 000000
2013-11-12 02:36:06,0.11,2.48,0.00,24.33,25.75,28.60,5.82,30.33,1005.39,2049.04,2536.85,2710.25,2884.63,349.75,318.55,24.33,0000 0000 0000 0000 000000